Date,TemperatureHighF,TemperatureAvgF,TemperatureLowF,DewpointHighF,DewpointAvgF,DewpointLowF,HumidityHigh,HumidityAvg,HumidityLow,PressureMaxIn,PressureMinIn,WindSpeedMaxMPH,WindSpeedAvgMPH,GustSpeedMaxMPH,PrecipitationSumIn
2013-3-1,72.1,57.1,45.3,54.2,49.0,45.1,100,78,44,30.03,29.83,4,0,5,0.00
2013-3-2,70.5,57.0,48.7,54.3,50.5,47.4,97,81,49,29.85,29.65,4,0,6,0.00
2013-3-3,68.4,55.2,47.3,54.0,48.1,43.1,100,80,43,29.68,29.59,4,0,9,0.00
2013-3-4,56.3,48.0,40.6,48.3,45.2,39.0,100,91,70,29.74,29.65,4,0,6,0.00
2013-3-5,55.2,46.6,38.1,50.2,43.9,37.3,100,91,69,29.68,29.35,8,1,15,0.35
2013-3-6,54.9,48.7,41.4,50.9,45.2,38.2,100,89,57,29.65,29.38,4,1,8,0.35
2013-3-7,54.0,46.5,39.2,47.0,41.4,35.1,100,84,49,29.59,29.44,6,0,6,0.00
2013-3-8,63.9,49.6,39.0,44.8,41.4,38.5,100,76,44,29.62,29.44,4,0,6,0.00
2013-3-9,68.0,52.7,39.4,45.9,41.9,37.8,97,71,38,29.91,29.62,4,0,6,0.00
2013-3-10,70.0,53.9,41.0,47.9,42.3,33.3,95,70,28,29.94,29.83,5,0,5,0.00
2013-3-11,70.9,53.4,40.5,50.3,45.3,39.9,99,78,35,29.85,29.68,5,0,5,0.00
2013-3-12,72.0,55.4,42.6,55.2,48.0,42.6,100,80,44,29.77,29.68,4,0,4,0.00
2013-3-13,75.7,58.2,43.3,56.6,49.6,43.1,100,77,35,29.77,29.65,3,0,4,0.00
2013-3-14,71.4,57.3,47.8,57.0,49.4,43.3,100,78,37,29.77,29.68,3,0,4,0.00
2013-3-15,74.3,55.5,45.7,56.7,48.0,44.9,99,79,42,29.74,29.62,3,0,8,0.00
2013-3-16,73.8,58.4,45.0,54.1,44.7,35.5,99,66,26,29.74,29.62,5,0,8,0.00
2013-3-17,67.3,56.8,45.9,46.4,42.2,37.1,86,60,37,29.74,29.62,4,0,5,0.00
2013-3-18,67.8,54.2,42.6,48.8,45.4,41.6,97,75,46,29.71,29.62,4,0,4,0.00
2013-3-19,60.3,52.8,46.4,50.5,46.6,42.7,98,81,59,29.71,29.65,2,0,4,0.04
2013-3-20,60.6,51.5,46.8,59.8,51.1,46.8,100,99,89,29.74,29.65,2,0,4,0.63
2013-3-21,64.6,52.7,41.0,50.0,44.0,40.8,100,76,45,29.74,29.59,4,0,6,0.00
2013-3-22,66.4,53.0,39.7,43.2,38.8,30.5,96,64,28,29.74,29.62,5,0,6,0.00
2013-3-23,67.1,53.5,41.4,44.8,39.8,36.2,89,64,35,29.74,29.62,5,0,5,0.00
2013-3-24,68.7,54.0,41.4,48.5,44.8,40.3,98,74,40,29.68,29.56,4,0,6,0.00
2013-3-25,60.6,49.5,41.9,51.3,45.1,41.4,100,86,57,29.62,29.53,6,0,6,0.00
2013-3-26,64.6,51.5,43.2,50.0,45.4,42.8,100,82,47,29.59,29.53,5,0,7,0.00
2013-3-27,60.6,52.4,46.4,56.1,50.4,45.0,100,93,71,29.62,29.53,3,0,4,0.00
2013-3-28,60.1,54.0,50.2,59.1,53.3,49.9,100,98,88,29.68,29.59,4,0,5,0.04
2013-3-29,74.1,58.3,48.7,59.9,52.4,48.7,100,83,47,29.68,29.62,5,0,6,0.00
2013-3-30,65.5,56.0,51.3,57.2,53.0,49.7,100,90,64,29.68,29.59,6,0,232,0.08
2013-3-31,60.1,55.5,52.0,60.1,55.3,52.0,100,99,93,29.65,29.59,6,0,7,0.71